Howell, MI

3:18 PM EST on January 20, 2018 (GMT -0500)
Livingston County

Weather History for KOZW - November, 2011

Change the Weather History Date:

Sunday, November 20, 2011

  Actual Average Record
Temperature  
Mean Temperature 46 °F -  
Max Temperature 57 °F 45 °F 59 °F (2003)
Min Temperature 35 °F 32 °F 12 °F (2014)
Degree Days  
Heating Degree Days 19    
Moisture  
Dew Point 37 °F    
Average Humidity 70    
Maximum Humidity 81    
Minimum Humidity 57    
Precipitation  
Precipitation 0.00 in - - ()
Sea Level Pressure  
Sea Level Pressure 30.09 in    
Wind  
Wind Speed 11 mph (NW)    
Max Wind Speed 18 mph    
Max Gust Speed 25 mph    
Visibility 10 miles    
Events      
Averages and records for this station are not official NWS values.
T = Trace of Precipitation, MM = Missing Value Source: NWS Daily Summary

Daily Weather History Graph

Daily Weather History Graph

Search for Another Location

Airport or City:

Trip Planner

Search our weather history database for the weather conditions in past years. The results will help you decide how hot, cold, wet, or windy it might be!

Date:

Astronomy

Nov. 20, 2011 Rise Set
Actual Time 7:33 AM EST 5:09 PM EST
Civil Twilight 7:02 AM EST 5:40 PM EST
Nautical Twilight 6:28 AM EST 6:14 PM EST
Astronomical Twilight 5:54 AM EST 6:48 PM EST
Moon 1:54 AM EST 2:03 PM EST
Length of Visible Light 10h 37m
Length of Day
9h 36m
Waning Crescent, 27% of the Moon is Illuminated
Nov 20
Waning Crescent
Nov 25
New
Dec 2
First Quarter
Dec 10
Full
Dec 17
Last Quarter

Hourly Weather History & Observations

Time (EST) Temp. Windchill Dew Point Humidity Pressure Visibility Wind Dir Wind Speed Gust Speed Precip Events Conditions
12:15 AM 55.4 °F - 44.6 °F 67% 29.80 in 10.0 mi SW 18.4 mph 25.3 mph N/A   Overcast
12:34 AM 53.6 °F - 44.6 °F 72% 29.80 in 10.0 mi SW 13.8 mph 23.0 mph N/A   Overcast
1:15 AM 53.6 °F - 46.4 °F 77% 29.81 in 10.0 mi SW 10.4 mph - N/A   Light Drizzle
1:34 AM 55.4 °F - 46.4 °F 72% 29.81 in 10.0 mi SW 13.8 mph 19.6 mph N/A   Overcast
1:55 AM 55.4 °F - 46.4 °F 72% 29.81 in 10.0 mi SW 12.7 mph 20.7 mph N/A   Overcast
2:15 AM 55.4 °F - 46.4 °F 72% 29.82 in 10.0 mi SW 12.7 mph 23.0 mph N/A   Overcast
2:35 AM 55.4 °F - 48.2 °F 77% 29.82 in 10.0 mi SW 13.8 mph 18.4 mph N/A   Overcast
2:55 AM 55.4 °F - 48.2 °F 77% 29.83 in 10.0 mi SW 13.8 mph 18.4 mph N/A   Overcast
3:15 AM 55.4 °F - 48.2 °F 77% 29.83 in 10.0 mi SW 13.8 mph - N/A   Overcast
3:35 AM 57.2 °F - 50.0 °F 77% 29.84 in 10.0 mi SW 15.0 mph 25.3 mph N/A   Overcast
3:55 AM 57.2 °F - 50.0 °F 77% 29.84 in 10.0 mi WSW 16.1 mph 19.6 mph N/A   Overcast
4:14 AM 57.2 °F - 50.0 °F 77% 29.85 in 10.0 mi WSW 13.8 mph 18.4 mph N/A   Overcast
4:35 AM 57.2 °F - 50.0 °F 77% 29.86 in 10.0 mi WSW 15.0 mph 23.0 mph N/A   Overcast
4:55 AM 57.2 °F - 50.0 °F 77% 29.88 in 10.0 mi West 15.0 mph 19.6 mph N/A   Overcast
5:14 AM 55.4 °F - 46.4 °F 72% 29.89 in 10.0 mi West 15.0 mph 24.2 mph N/A   Overcast
5:35 AM 55.4 °F - 44.6 °F 67% 29.91 in 10.0 mi West 12.7 mph 25.3 mph N/A   Overcast
5:55 AM 55.4 °F - 44.6 °F 67% 29.93 in 10.0 mi West 17.3 mph 25.3 mph N/A   Overcast
6:55 AM 50.0 °F - 41.0 °F 71% 30.00 in 10.0 mi West 15.0 mph 20.7 mph N/A   Overcast
7:15 AM 50.0 °F - 41.0 °F 71% 30.02 in 10.0 mi WNW 9.2 mph - N/A   Overcast
7:55 AM 46.4 °F 41.9 °F 37.4 °F 71% 30.06 in 10.0 mi NW 9.2 mph 19.6 mph N/A   Overcast
8:15 AM 44.6 °F 39.7 °F 37.4 °F 76% 30.08 in 10.0 mi NNW 9.2 mph - N/A   Overcast
8:35 AM 44.6 °F 38.8 °F 35.6 °F 71% 30.09 in 10.0 mi North 11.5 mph 19.6 mph N/A   Overcast
8:55 AM 42.8 °F 37.0 °F 33.8 °F 70% 30.10 in 10.0 mi NNW 10.4 mph - N/A   Overcast
9:15 AM 42.8 °F 37.0 °F 33.8 °F 70% 30.12 in 10.0 mi NNW 10.4 mph - N/A   Overcast
9:35 AM 42.8 °F 38.6 °F 33.8 °F 70% 30.13 in 10.0 mi NNW 6.9 mph - N/A   Overcast
9:55 AM 42.8 °F 38.0 °F 33.8 °F 70% 30.13 in 10.0 mi North 8.1 mph - N/A   Overcast
10:15 AM 42.8 °F 38.0 °F 32.0 °F 66% 30.14 in 10.0 mi North 8.1 mph - N/A   Overcast
10:34 AM 42.8 °F 39.3 °F 32.0 °F 66% 30.15 in 10.0 mi North 5.8 mph - N/A   Overcast
10:55 AM 44.6 °F 40.7 °F 32.0 °F 61% 30.15 in 10.0 mi NW 6.9 mph - N/A   Mostly Cloudy
11:15 AM 44.6 °F 40.7 °F 32.0 °F 61% 30.16 in 10.0 mi North 6.9 mph - N/A   Scattered Clouds
11:35 AM 44.6 °F 42.2 °F 32.0 °F 61% 30.17 in 10.0 mi North 4.6 mph - N/A   Scattered Clouds
11:55 AM 44.6 °F - 32.0 °F 61% 30.17 in 10.0 mi Calm Calm - N/A   Scattered Clouds
12:14 PM 44.6 °F 42.2 °F 32.0 °F 61% 30.17 in 10.0 mi WNW 4.6 mph - N/A   Scattered Clouds
12:35 PM 46.4 °F 44.3 °F 32.0 °F 57% 30.17 in 10.0 mi WNW 4.6 mph - N/A   Scattered Clouds
1:14 PM 46.4 °F 43.5 °F 32.0 °F 57% 30.18 in 10.0 mi NW 5.8 mph - N/A   Mostly Cloudy
1:55 PM 46.4 °F 42.9 °F 32.0 °F 57% 30.19 in 10.0 mi NW 6.9 mph - N/A   Overcast
2:14 PM 46.4 °F 43.5 °F 32.0 °F 57% 30.19 in 10.0 mi North 5.8 mph - N/A   Overcast
2:35 PM 44.6 °F 40.2 °F 32.0 °F 61% 30.19 in 10.0 mi North 8.1 mph - N/A   Overcast
2:55 PM 44.6 °F 41.4 °F 32.0 °F 61% 30.18 in 10.0 mi North 5.8 mph - N/A   Overcast
3:15 PM 44.6 °F 43.1 °F 32.0 °F 61% 30.19 in 10.0 mi North 3.5 mph - N/A   Overcast
3:35 PM 44.6 °F 39.7 °F 32.0 °F 61% 30.20 in 10.0 mi North 9.2 mph - N/A   Overcast
3:54 PM 42.8 °F 38.6 °F 32.0 °F 66% 30.20 in 10.0 mi North 6.9 mph - N/A   Overcast
4:15 PM 42.8 °F 40.1 °F 32.0 °F 66% 30.22 in 10.0 mi North 4.6 mph - N/A   Overcast
4:35 PM 42.8 °F 39.3 °F 32.0 °F 66% 30.23 in 10.0 mi North 5.8 mph - N/A   Mostly Cloudy
4:55 PM 41.0 °F 38.0 °F 32.0 °F 70% 30.23 in 10.0 mi North 4.6 mph - N/A   Mostly Cloudy
5:15 PM 41.0 °F 39.0 °F 32.0 °F 70% 30.24 in 10.0 mi North 3.5 mph - N/A   Mostly Cloudy
5:35 PM 41.0 °F 36.4 °F 32.0 °F 70% 30.25 in 10.0 mi North 6.9 mph - N/A   Overcast
6:15 PM 39.2 °F 35.0 °F 32.0 °F 75% 30.26 in 10.0 mi NNW 5.8 mph - N/A   Scattered Clouds
6:34 PM 39.2 °F 34.2 °F 32.0 °F 75% 30.26 in 10.0 mi North 6.9 mph - N/A   Scattered Clouds
6:55 PM 37.4 °F 33.8 °F 32.0 °F 81% 30.27 in 10.0 mi North 4.6 mph - N/A   Mostly Cloudy
7:15 PM 37.4 °F 33.8 °F 32.0 °F 81% 30.28 in 10.0 mi North 4.6 mph - N/A   Mostly Cloudy
7:34 PM 39.2 °F 37.0 °F 32.0 °F 75% 30.28 in 10.0 mi North 3.5 mph - N/A   Mostly Cloudy
7:55 PM 39.2 °F - 32.0 °F 75% 30.28 in 10.0 mi Calm Calm - N/A   Overcast
8:34 PM 37.4 °F 33.8 °F 32.0 °F 81% 30.29 in 10.0 mi NNE 4.6 mph - N/A   Mostly Cloudy
8:55 PM 37.4 °F - 30.2 °F 75% 30.30 in 10.0 mi Calm Calm - N/A   Mostly Cloudy
9:15 PM 35.6 °F - 30.2 °F 81% 30.31 in 10.0 mi Calm Calm - N/A   Clear
9:34 PM 35.6 °F - 30.2 °F 81% 30.31 in 10.0 mi Calm Calm - N/A   Mostly Cloudy
9:55 PM 35.6 °F 32.8 °F 30.2 °F 81% 30.30 in 10.0 mi NNE 3.5 mph - N/A   Overcast
10:15 PM 35.6 °F - 30.2 °F 81% 30.31 in 10.0 mi Calm Calm - N/A   Overcast
10:35 PM 35.6 °F 32.8 °F 30.2 °F 81% 30.31 in 10.0 mi North 3.5 mph - N/A   Overcast
10:55 PM 35.6 °F 32.8 °F 30.2 °F 81% 30.31 in 10.0 mi North 3.5 mph - N/A   Overcast
11:14 PM 33.8 °F - 30.2 °F 87% 30.31 in 10.0 mi Calm Calm - N/A   Mostly Cloudy
11:35 PM 33.8 °F - 30.2 °F 87% 30.30 in 10.0 mi Calm Calm - N/A   Mostly Cloudy
11:55 PM 33.8 °F - 30.2 °F 87% 30.31 in 10.0 mi Calm Calm - N/A   Scattered Clouds